Location: Pinon Hills
(34.4429°N, 117.6403°W)
Time: 15:21:06
(UTC-07:00)

Uosat F - Visible Passes

Search period start: 03 July 2015 00:00
Search period end: 13 July 2015 00:00
Orbit: 752 x 761 km, 98.7° (Epoch: 03 July)

Date Brightness Start Highest point End Pass type
(mag) Time Alt. Az. Time Alt. Az. Time Alt. Az.
03 Jul 14.2 04:32:17 10° E 04:32:41 10° E 04:33:28 10° E visible
05 Jul 13.7 04:49:53 10° NE 04:53:04 17° E 04:56:28 10° SE visible
07 Jul 13.2 05:09:08 10° NE 05:13:23 28° E 05:17:42 10° SSE visible
08 Jul 14.2 04:33:08 10° E 04:33:35 10° E 04:34:26 10° E visible
10 Jul 13.7 04:50:47 10° NE 04:53:59 17° E 04:57:22 10° SE visible
12 Jul 13.2 05:10:03 10° NE 05:14:18 28° E 05:18:37 10° SSE visible
